This is the latest recevied weather packets stored in our database for station/object NEWPRT. If no packets are shown the sender has not sent any weather packets the latest 10 day(s).
| Time | Temp. | Humidity | Pressure | Rain* | Wind** | Luminosity | Snow |
|---|---|---|---|---|---|---|---|
| 1777954474 | - | 82% | 1015.2 hPa | 0 mm | - | - | - |
| 1777954151 | - | 82% | 1015.4 hPa | 0 mm | - | - | - |
| 1777953828 | - | 82% | 1015.2 hPa | 0 mm | - | - | - |
| 1777953505 | - | 80% | 1014.9 hPa | 0 mm | - | - | - |
| 1777953182 | - | 78% | 1014.5 hPa | 0 mm | - | - | - |
| 1777952859 | - | 73% | 1014.2 hPa | 0 mm | - | - | - |
| 1777952536 | - | 75% | 1014.3 hPa | 0 mm | - | - | - |
| 1777952213 | - | 77% | 1014.3 hPa | 0 mm | - | - | - |
| 1777951890 | - | 75% | 1014.2 hPa | 0 mm | - | - | - |
| 1777951567 | - | 79% | 1014.2 hPa | 0 mm | - | - | - |
| 1777951244 | - | 79% | 1014.1 hPa | 0 mm | - | - | - |
| 1777950921 | - | 75% | 1014 hPa | 0 mm | - | - | - |
| 1777950598 | - | 75% | 1014 hPa | 0 mm | - | - | - |
| 1777950274 | - | 73% | 1014.2 hPa | 0 mm | - | - | - |
| 1777949952 | - | 74% | 1014.2 hPa | 0 mm | - | - | - |
| 1777949629 | - | 71% | 1014.3 hPa | 0 mm | - | - | - |
| 1777949305 | - | 69% | 1014.4 hPa | 0 mm | - | - | - |
| 1777948983 | - | 69% | 1014.5 hPa | 0 mm | - | - | - |
| 1777948659 | - | 68% | 1014.6 hPa | 0 mm | - | - | - |
| 1777948337 | - | 63% | 1014.4 hPa | 0 mm | - | - | - |
| 1777948014 | - | 66% | 1014.5 hPa | 0 mm | - | - | - |
| 1777947690 | - | 64% | 1014.6 hPa | 0 mm | - | - | - |
| 1777947368 | - | 61% | 1014.6 hPa | 0 mm | - | - | - |
| 1777947044 | - | 64% | 1014.6 hPa | 0 mm | - | - | - |
| 1777946722 | - | 64% | 1014.6 hPa | 0 mm | - | - | - |
* Rain latest hour (hover to see other rain measurements)
** Current wind speed in m/s (hover to see current wind gust speed)